Wind_Speed
22 22 23 23 22 21 21 20 19 18 17 15 14 13 12 11 10 10 11 10 11 13 14 13 11 10 12 13 13 14 13 11 10 9 9 9 10 11 12 12 13 14
23 23 23 24 23 23 22 21 20 20 18 15 13 12 12 11 10 10 10 9 9 10 12 13 12 11 12 13 13 12 12 12 11 10 10 10 9 9 9 11 12 13
26 25 25 24 24 24 23 23 22 20 18 16 15 14 13 12 11 11 11 10 9 8 9 12 12 11 12 13 12 11 11 11 10 11 12 11 9 9 9 11 12 12
27 27 26 25 24 23 24 24 23 21 19 18 17 16 15 14 14 13 12 12 11 9 8 10 12 12 12 12 12 11 11 10 10 11 12 11 10 11 11 11 11 11
29 28 27 27 25 24 24 25 24 21 19 18 17 16 16 16 15 15 13 13 13 12 10 9 11 12 12 12 12 12 11 11 11 11 11 11 11 11 11 11 11 10
29 30 29 28 28 26 26 25 24 21 19 19 17 16 16 16 15 15 15 14 13 12 11 9 10 12 12 12 12 12 12 11 11 11 11 11 11 11 11 11 11 11
31 31 31 30 29 29 28 26 25 23 21 20 18 18 17 17 16 16 15 14 13 12 11 10 10 12 12 13 12 12 12 12 11 12 12 12 12 12 11 10 11 11
32 32 32 32 31 30 29 27 26 25 23 21 20 20 19 18 17 17 16 15 14 13 12 11 11 12 13 13 13 13 13 13 13 14 13 12 13 11 10 11 12 12
32 33 33 33 33 32 30 29 28 27 25 23 22 21 20 19 18 18 18 17 16 15 14 13 13 14 15 14 14 14 14 14 15 15 14 13 12 12 12 12 12 11
33 33 34 34 34 34 33 31 30 28 26 24 24 23 22 21 19 19 19 18 18 18 17 16 15 15 16 16 15 16 15 15 15 15 14 13 12 13 15 15 13 12
33 34 35 36 36 36 35 34 32 30 29 27 26 25 24 23 22 21 20 19 20 20 18 18 17 16 17 17 16 17 17 16 16 15 14 14 14 15 16 15 13 13
34 35 36 37 37 37 36 36 35 32 31 29 28 27 26 25 24 23 22 21 22 21 20 20 18 17 18 19 18 18 17 17 18 17 15 14 15 16 15 14 13 14
36 36 37 37 37 38 37 36 36 35 33 31 30 29 27 26 25 25 24 22 22 22 22 21 19 18 19 20 20 19 17 16 16 16 15 16 16 16 15 14 15 15
36 37 37 38 37 37 38 37 36 35 34 32 31 31 29 27 26 25 24 23 22 23 24 22 21 21 21 21 20 19 17 15 15 15 16 17 17 16 15 15 15 16
35 35 36 38 38 37 37 37 36 35 34 33 32 31 30 28 27 25 24 24 24 24 24 24 23 23 23 21 20 20 19 17 15 16 17 17 17 17 17 16 16 17
34 34 35 36 37 38 37 36 36 35 33 33 32 31 30 28 27 26 24 24 24 23 23 24 24 23 23 22 20 20 20 19 17 17 17 17 18 17 18 18 17 17
36 34 33 33 35 37 38 36 35 34 33 32 31 30 30 28 26 26 25 24 23 22 22 23 24 24 23 22 20 20 20 19 18 18 17 17 18 17 18 19 18 17
39 36 31 31 33 35 37 35 34 33 33 32 31 30 28 27 26 26 26 24 23 23 23 23 24 24 24 24 23 22 21 20 19 19 18 17 17 17 17 18 18 18
30 33 30 29 31 33 34 34 33 33 33 32 30 29 28 28 27 27 26 26 25 25 24 23 23 24 25 25 24 22 22 21 21 20 19 17 17 16 16 16 16 16
21 25 28 30 31 31 32 33 33 32 33 31 29 28 28 29 29 27 27 26 25 24 23 22 22 23 23 24 23 22 21 21 22 21 19 17 17 16 15 13 12 13
24 24 29 31 30 30 32 33 34 34 33 30 29 29 29 29 28 27 26 26 24 24 24 23 23 22 21 22 22 20 19 20 20 21 20 18 15 14 14 12 11 12
27 28 31 32 31 32 33 35 35 34 33 31 29 27 27 27 27 26 26 25 23 23 24 24 23 22 20 21 21 19 18 19 20 21 22 22 19 16 15 13 12 14
28 30 34 34 34 34 36 38 38 36 34 32 29 27 26 26 26 25 25 24 21 23 24 23 22 21 20 20 21 21 20 20 20 21 22 24 23 21 19 17 16 16
25 30 34 35 35 35 34 34 36 36 36 34 30 28 26 26 26 25 24 23 21 21 22 22 21 19 19 20 20 21 21 22 21 21 21 21 22 23 22 20 19 18
20 24 30 34 34 35 34 30 28 32 35 34 31 29 27 26 25 25 24 22 21 20 20 22 22 19 18 19 19 20 21 22 21 21 21 21 21 22 21 20 20 20
20 22 29 34 33 32 34 33 28 27 30 33 32 30 28 27 26 25 25 23 21 21 21 23 24 21 19 19 19 19 20 21 22 22 22 21 21 21 21 19 19 19
Wind_Direction
200 201 201 202 206 210 211 214 219 219 218 222 233 243 252 253 249 246 249 250 240 232 229 224 219 220 226 230 233 236 240 238 234 235 236 236 233 228 224 224 228 230
202 203 204 206 210 213 216 216 215 216 220 229 238 246 254 256 254 253 254 258 253 237 227 221 217 220 228 232 232 233 237 236 230 229 230 230 228 227 226 227 232 231
204 204 206 208 210 213 214 214 214 219 226 233 236 240 247 251 253 255 256 259 262 252 229 217 215 219 227 235 237 233 234 236 233 227 227 226 223 225 226 226 229 227
204 205 207 208 209 211 211 214 219 223 227 230 234 239 243 245 246 247 248 249 253 252 240 225 219 219 224 233 239 237 233 232 228 221 221 223 221 222 224 227 229 224
204 206 207 209 209 211 213 217 222 224 225 227 230 236 238 238 241 244 247 249 249 251 251 239 227 224 226 230 235 238 235 229 228 225 223 222 220 220 222 230 235 228
204 206 208 208 210 213 216 218 220 223 226 227 228 232 237 238 241 245 248 250 251 252 253 245 234 231 231 230 231 234 234 233 232 229 226 227 227 226 225 229 233 231
206 208 208 209 211 214 218 219 220 222 224 227 229 232 235 238 241 244 246 248 250 252 249 242 236 234 233 231 228 229 232 233 232 231 230 231 231 229 228 232 234 232
209 210 210 211 212 215 219 220 221 221 222 225 230 233 235 236 239 242 244 246 248 250 249 242 236 235 235 233 231 230 231 232 232 235 236 234 233 231 230 236 236 233
211 212 212 213 215 216 219 220 221 222 222 224 229 234 236 235 236 239 242 243 243 244 245 242 237 239 241 239 239 238 237 237 238 238 240 241 238 235 234 240 245 247
214 214 213 214 216 218 219 220 221 223 224 226 229 233 237 237 235 237 241 242 241 240 242 243 241 241 244 244 245 246 244 241 241 242 246 249 248 242 241 244 246 248
219 217 217 216 216 217 219 221 223 224 226 228 230 232 235 237 235 236 239 240 242 243 243 245 244 240 242 244 244 246 248 246 246 249 253 254 252 249 247 247 246 245
221 221 220 219 218 219 220 222 224 226 227 228 231 233 234 236 238 238 238 237 241 246 245 244 243 240 241 244 245 247 249 249 250 253 255 255 252 250 249 248 250 249
222 222 222 222 221 221 221 223 224 226 228 229 232 234 233 236 239 239 239 239 238 241 244 243 241 240 242 243 247 250 247 245 250 250 249 250 250 251 251 247 247 244
222 222 222 223 223 223 223 223 224 225 227 229 231 232 234 236 238 237 239 241 236 235 240 242 238 237 239 241 244 248 248 246 247 243 242 249 251 250 251 249 246 244
221 221 221 223 223 223 223 223 223 224 226 227 227 230 234 235 235 233 234 238 236 234 237 237 235 235 237 239 241 244 246 249 248 244 245 254 255 249 249 249 248 248
218 218 219 220 222 222 222 221 222 223 224 225 225 228 232 233 231 229 231 236 236 233 232 231 232 234 235 236 235 235 239 245 248 247 249 254 254 250 250 251 252 250
218 216 216 218 219 220 221 220 220 221 222 224 224 225 228 229 227 225 227 233 232 226 224 226 229 231 234 235 233 233 236 241 245 246 248 252 255 253 252 252 253 252
221 219 219 221 219 219 220 219 218 219 220 221 221 221 222 223 223 221 221 224 223 220 221 224 226 228 232 236 239 239 239 241 245 247 249 254 257 256 253 253 256 253
226 218 219 223 221 218 218 217 215 215 217 217 217 218 220 220 219 217 216 218 220 222 225 225 224 226 231 236 240 241 241 242 244 245 248 253 255 255 255 256 254 248
243 223 221 225 222 218 216 216 213 212 214 216 217 219 219 218 218 215 215 219 222 224 227 228 226 226 229 235 238 238 240 241 241 241 242 244 246 251 260 263 256 246
243 232 228 229 226 220 217 216 213 212 214 216 217 219 217 216 216 215 215 218 219 218 222 228 231 228 228 232 235 237 238 236 236 236 234 233 236 246 258 264 257 247
232 231 231 229 226 223 221 219 215 212 212 213 213 215 216 217 216 215 216 216 214 213 217 223 226 226 229 232 233 235 234 230 230 230 227 227 230 237 246 250 247 244
233 229 229 228 229 231 227 220 216 212 208 208 210 211 213 217 218 215 215 215 212 213 217 220 223 224 229 233 231 230 229 227 227 228 228 228 231 236 242 243 243 245
244 231 228 228 235 243 237 221 215 214 209 208 211 211 211 215 216 215 215 214 211 212 213 217 221 223 225 229 229 229 229 227 227 228 230 231 232 237 242 242 242 247
267 245 233 230 234 244 244 230 220 217 211 206 207 209 210 213 213 213 215 212 209 212 213 216 221 223 223 226 229 229 228 228 227 228 230 233 234 238 244 245 243 246
282 264 243 233 233 238 238 231 227 221 211 204 204 205 208 213 214 214 215 215 214 217 218 219 223 227 227 228 232 231 230 229 229 228 230 233 234 236 242 247 246 245
Height
1486 1488 1489 1491 1493 1494 1496 1497 1499 1500 1501 1501 1502 1502 1503 1504 1505 1507 1508 1510 1511 1513 1514 1516 1517 1519 1519 1520 1521 1522 1523 1524 1525 1526 1526 1527 1528 1529 1529 1530 1532 1533
1484 1486 1488 1489 1491 1493 1494 1496 1497 1498 1499 1499 1500 1500 1501 1502 1503 1504 1505 1507 1509 1511 1513 1514 1516 1517 1517 1518 1520 1521 1522 1524 1525 1525 1526 1526 1526 1527 1528 1530 1532 1533
1482 1484 1485 1487 1489 1490 1492 1493 1495 1496 1497 1497 1498 1498 1499 1500 1501 1502 1504 1505 1507 1509 1510 1512 1514 1515 1516 1516 1518 1520 1521 1522 1523 1524 1525 1526 1526 1527 1528 1530 1531 1533
1479 1481 1483 1485 1487 1488 1490 1491 1493 1494 1495 1496 1496 1497 1497 1498 1499 1501 1502 1503 1505 1507 1509 1510 1512 1513 1514 1515 1516 1518 1519 1520 1521 1523 1524 1525 1526 1527 1527 1529 1530 1531
1476 1479 1481 1483 1485 1487 1488 1489 1490 1492 1493 1494 1495 1495 1496 1496 1498 1499 1500 1501 1503 1505 1507 1509 1510 1511 1513 1514 1515 1516 1517 1519 1520 1521 1522 1523 1525 1526 1527 1528 1529 1530
1474 1476 1478 1481 1483 1484 1486 1487 1489 1490 1491 1492 1493 1494 1494 1495 1496 1497 1498 1500 1502 1504 1505 1507 1508 1510 1511 1512 1513 1515 1516 1517 1518 1520 1521 1522 1523 1525 1526 1527 1527 1528
1471 1473 1476 1478 1480 1482 1484 1485 1487 1488 1490 1491 1491 1492 1493 1493 1494 1495 1497 1499 1500 1502 1504 1505 1507 1508 1509 1510 1512 1513 1514 1515 1517 1518 1520 1521 1522 1524 1525 1526 1526 1527
1468 1471 1473 1476 1478 1480 1482 1483 1485 1486 1488 1489 1489 1490 1491 1492 1493 1494 1496 1498 1499 1501 1502 1503 1504 1505 1507 1508 1509 1511 1512 1514 1515 1517 1518 1520 1521 1523 1523 1524 1523 1524
1466 1468 1470 1473 1475 1477 1479 1481 1483 1484 1486 1487 1487 1488 1490 1491 1492 1493 1495 1497 1498 1499 1500 1502 1503 1504 1505 1506 1507 1509 1510 1512 1513 1515 1517 1518 1520 1521 1521 1521 1521 1522
1464 1466 1468 1470 1472 1474 1476 1478 1480 1482 1483 1484 1485 1487 1488 1489 1491 1492 1494 1495 1497 1498 1499 1500 1501 1502 1503 1505 1506 1507 1509 1510 1512 1513 1515 1517 1518 1518 1517 1518 1519 1519
1462 1463 1465 1467 1468 1470 1472 1475 1477 1479 1481 1482 1483 1485 1486 1488 1489 1491 1492 1494 1495 1496 1498 1499 1500 1501 1502 1503 1504 1505 1507 1509 1510 1512 1514 1514 1514 1514 1515 1516 1517 1517
1460 1461 1462 1464 1466 1467 1469 1472 1474 1476 1478 1479 1481 1482 1484 1486 1487 1489 1491 1492 1493 1495 1496 1497 1498 1499 1500 1501 1503 1504 1506 1508 1509 1510 1512 1512 1511 1512 1513 1515 1515 1516
1456 1458 1460 1461 1463 1465 1467 1469 1470 1473 1475 1476 1478 1480 1482 1484 1485 1487 1489 1490 1492 1493 1494 1496 1497 1498 1498 1500 1502 1503 1505 1506 1508 1509 1510 1509 1509 1511 1512 1512 1512 1514
1452 1454 1457 1459 1461 1463 1464 1466 1468 1470 1472 1474 1476 1477 1479 1481 1483 1484 1486 1488 1490 1491 1492 1494 1495 1496 1497 1499 1500 1502 1503 1505 1506 1507 1507 1506 1507 1508 1509 1509 1510 1511
1449 1451 1453 1457 1459 1461 1462 1463 1465 1467 1469 1471 1473 1475 1477 1478 1480 1482 1484 1485 1487 1489 1490 1492 1494 1495 1496 1498 1499 1500 1501 1503 1505 1505 1504 1504 1505 1507 1508 1508 1509 1510
1448 1449 1451 1454 1457 1459 1460 1461 1463 1464 1466 1468 1470 1472 1474 1476 1478 1480 1481 1482 1484 1486 1488 1490 1492 1494 1495 1497 1498 1499 1500 1502 1503 1503 1503 1503 1504 1505 1507 1507 1508 1509
1445 1447 1449 1452 1455 1457 1458 1459 1461 1462 1463 1465 1467 1469 1471 1472 1474 1476 1478 1479 1481 1483 1486 1488 1490 1492 1493 1495 1497 1498 1500 1501 1502 1502 1502 1503 1503 1504 1505 1506 1506 1507
1444 1445 1447 1450 1454 1456 1456 1457 1458 1460 1461 1462 1463 1465 1467 1469 1471 1473 1475 1477 1479 1481 1483 1484 1486 1489 1491 1493 1495 1497 1498 1499 1500 1501 1501 1502 1502 1502 1503 1504 1504 1506
1445 1446 1448 1450 1452 1454 1455 1455 1455 1456 1458 1459 1460 1462 1463 1465 1467 1469 1471 1474 1476 1478 1479 1481 1483 1485 1488 1491 1493 1494 1496 1497 1498 1499 1500 1500 1500 1500 1501 1502 1503 1504
1447 1448 1449 1449 1450 1451 1453 1453 1452 1453 1455 1457 1458 1459 1460 1462 1463 1466 1468 1470 1473 1475 1477 1478 1479 1482 1485 1487 1489 1492 1494 1495 1496 1497 1498 1499 1499 1499 1500 1500 1501 1502
1444 1447 1448 1449 1449 1450 1450 1450 1450 1450 1451 1453 1455 1456 1458 1459 1461 1463 1464 1467 1469 1471 1473 1475 1477 1479 1481 1484 1486 1489 1491 1492 1494 1495 1496 1497 1497 1498 1498 1499 1499 1500
1438 1441 1444 1446 1448 1449 1449 1448 1447 1447 1448 1450 1452 1454 1455 1457 1459 1461 1462 1464 1466 1468 1470 1472 1474 1476 1478 1481 1483 1486 1488 1489 1491 1492 1494 1495 1496 1496 1497 1498 1498 1499
1435 1437 1439 1441 1444 1445 1445 1445 1444 1445 1445 1447 1449 1451 1453 1455 1457 1459 1461 1462 1463 1465 1467 1469 1471 1473 1475 1477 1480 1483 1485 1486 1488 1489 1491 1492 1494 1495 1495 1496 1497 1498
1434 1435 1435 1436 1439 1441 1442 1442 1443 1443 1443 1444 1446 1448 1451 1453 1455 1457 1459 1460 1461 1462 1464 1466 1468 1471 1473 1475 1477 1479 1481 1483 1485 1486 1488 1489 1491 1492 1493 1494 1495 1496
1431 1435 1434 1434 1436 1440 1442 1444 1444 1443 1442 1442 1444 1446 1449 1451 1453 1455 1456 1457 1459 1460 1462 1464 1466 1468 1470 1472 1474 1476 1478 1480 1482 1483 1484 1486 1487 1488 1490 1491 1493 1494
1427 1431 1432 1433 1434 1437 1441 1443 1444 1443 1441 1440 1441 1443 1446 1448 1450 1452 1454 1455 1457 1458 1460 1462 1464 1465 1468 1469 1471 1473 1475 1476 1478 1480 1481 1483 1484 1485 1486 1488 1490 1491